Weather in Lozova

Ukraine / Kharkiv Region     48˚53′24″N   36˚18′40″E
temp.,
°C
wind,
m/s
gust,
m/s
humid.,
%
clouds,
%
prec.,
mm/h
press.,
hPa
HPBL,
m
1 december, tue
tue123:00+4˚ese5977100 0.0 1025647
02:00+3˚ese6973100 0.0 1026628
05:00+1˚e5974100 0.0 1026557
08:00+1˚e6978100 0.0 1026635
11:00+1˚e6975100 0.0 1027711
14:00+3˚e7970100 0.0 1026924
17:00+2˚ese6974100 0.0 10261018
20:00+2˚e61078100 0.0 1027724
2 december, wed
wed223:00e71285100 0.3 1028609
02:00−1˚e71176100 0.3 1028531
05:00−1˚e7107997 0.0 1029512
08:00−1˚e6118298 0.0 1029520
11:00+1˚ese697797 0.0 1029593
14:00+1˚e697699 0.0 1028590
17:00e6108092 0.0 1028580
20:00e6108695 0.0 1029569
3 december, thu
thu323:00ese61095100 0.4 1028461
02:00e4797100 1.2 1028282
05:00+1˚ese5897100 2.3 1027285
08:00ese5898100 3.9 1028363
11:00ese5797100 1.4 1028336
14:00+1˚ese3598100 2.3 1027211
17:00+1˚se4797100 0.4 1027250
20:00+1˚se3697100 0.6 1027236
4 december, fri
fri423:00+2˚se3696100 0.3 1028265
02:00+2˚ese4698100 0.3 1028256
05:00+2˚ese4797100 0.0 1027372
08:00+1˚e5894100 0.0 1028398
11:00+1˚ese5888100 0.0 1028491
14:00+2˚e5887100 0.0 1027428
17:00+2˚ese5989100 0.0 1028430
20:00+2˚ese6988100 0.0 1028454
5 december, sat
sat523:00+1˚ese5986100 0.0 1029534
02:00+1˚ese5986100 0.0 1029494
05:00e598891 0.0 1029376
08:00−1˚e5108679 0.0 1031374
11:00+1˚ese6107727 0.0 1031385
14:00+1˚e697713 0.0 1030394
17:00−2˚e510840 0.0 1031348
20:00−2˚e610760 0.0 1032349